| time (UTC) | temp F | wind direction | speed MPH | gust MPH | rain 1hr in | rain 24hr in | rain mn in | humidity % | barometer mb |
| 20260504004618 | 55 | 225 | 1.0 | 5.0 | 0.00 | 0.00 | 0.00 | 61 | 1013.5 |
| 20260504003618 | 56 | 349 | 0.0 | 2.0 | 0.00 | 0.00 | 0.00 | 60 | 1013.5 |
| 20260504002620 | 57 | 225 | 2.0 | 4.0 | 0.00 | 0.00 | 0.00 | 57 | 1013.5 |
| 20260504001620 | 58 | 206 | 3.0 | 5.0 | 0.00 | 0.00 | 0.00 | 54 | 1013.7 |
| 20260504000719 | 58 | 297 | 3.0 | 7.0 | 0.00 | 0.00 | 0.00 | 54 | 1013.6 |
| 20260503234721 | 58 | 190 | 0.0 | 4.0 | 0.00 | 0.00 | 0.00 | 57 | 1013.5 |
| 20260503234618 | 58 | 220 | 2.0 | 7.0 | 0.00 | 0.00 | 0.00 | 57 | 1013.4 |
| 20260503233620 | 59 | 259 | 4.0 | 8.0 | 0.00 | 0.00 | 0.00 | 54 | 1013.5 |
| 20260503232719 | 59 | 292 | 4.0 | 7.0 | 0.00 | 0.00 | 0.00 | 55 | 1013.4 |
| 20260503232620 | 59 | 320 | 1.0 | 5.0 | 0.00 | 0.00 | 0.00 | 55 | 1013.4 |
| 20260503230620 | 57 | 233 | 1.0 | 4.0 | 0.00 | 0.00 | 0.00 | 56 | 1013.5 |
| 20260503230522 | 57 | 230 | 4.0 | 5.0 | 0.00 | 0.00 | 0.00 | 55 | 1013.6 |
| 20260503225521 | 58 | 258 | 2.0 | 5.0 | 0.00 | 0.00 | 0.00 | 55 | 1013.7 |
| 20260503224619 | 59 | 302 | 3.0 | 8.0 | 0.00 | 0.00 | 0.00 | 55 | 1013.8 |
| 20260503224536 | 59 | 55 | 1.0 | 4.0 | 0.00 | 0.00 | 0.00 | 54 | 1013.7 |
| 20260503223620 | 59 | 251 | 2.0 | 6.0 | 0.00 | 0.00 | 0.00 | 54 | 1013.8 |
| 20260503222619 | 60 | 186 | 4.0 | 10.0 | 0.00 | 0.00 | 0.00 | 53 | 1013.9 |
| 20260503221621 | 60 | 140 | 0.0 | 2.0 | 0.00 | 0.00 | 0.00 | 52 | 1013.9 |
| 20260503220719 | 60 | 250 | 3.0 | 6.0 | 0.00 | 0.00 | 0.00 | 50 | 1013.8 |
| 20260503215818 | 61 | 255 | 2.0 | 4.0 | 0.00 | 0.00 | 0.00 | 48 | 1013.8 |
| 20260503214820 | 63 | 189 | 5.0 | 12.0 | 0.00 | 0.00 | 0.00 | 44 | 1013.7 |
| 20260503213819 | 63 | 338 | 1.0 | 3.0 | 0.00 | 0.00 | 0.00 | 40 | 1013.6 |
| 20260503211820 | 64 | 178 | 2.0 | 6.0 | 0.00 | 0.00 | 0.00 | 39 | 1013.6 |
| 20260503210819 | 63 | 270 | 0.0 | 1.0 | 0.00 | 0.00 | 0.00 | 39 | 1013.7 |
| 20260503205820 | 63 | 176 | 4.0 | 7.0 | 0.00 | 0.00 | 0.00 | 40 | 1013.8 |
| 20260503204820 | 63 | 134 | 4.0 | 5.0 | 0.00 | 0.00 | 0.00 | 36 | 1013.7 |
| 20260503203719 | 63 | 136 | 3.0 | 6.0 | 0.00 | 0.00 | 0.00 | 36 | 1013.9 |
| 20260503202720 | 63 | 187 | 3.0 | 7.0 | 0.00 | 0.00 | 0.00 | 38 | 1013.8 |
| 20260503201720 | 64 | 246 | 3.0 | 5.0 | 0.00 | 0.00 | 0.00 | 35 | 1014.1 |
| 20260503200718 | 63 | 264 | 5.0 | 9.0 | 0.00 | 0.00 | 0.00 | 35 | 1013.9 |
| 20260503195721 | 63 | 225 | 4.0 | 10.0 | 0.00 | 0.00 | 0.00 | 36 | 1014.2 |
| 20260503194720 | 63 | 160 | 3.0 | 7.0 | 0.00 | 0.00 | 0.00 | 33 | 1014.5 |
| 20260503194620 | 63 | 261 | 8.0 | 12.0 | 0.00 | 0.00 | 0.00 | 33 | 1014.5 |
| 20260503193635 | 63 | 288 | 1.0 | 2.0 | 0.00 | 0.00 | 0.00 | 33 | 1014.5 |
| 20260503192719 | 62 | 143 | 1.0 | 5.0 | 0.00 | 0.00 | 0.00 | 32 | 1014.6 |
| 20260503192619 | 62 | 180 | 0.0 | 3.0 | 0.00 | 0.00 | 0.00 | 31 | 1014.6 |
| 20260503191719 | 62 | 229 | 6.0 | 10.0 | 0.00 | 0.00 | 0.00 | 33 | 1014.7 |
| 20260503190721 | 63 | 224 | 3.0 | 8.0 | 0.00 | 0.00 | 0.00 | 33 | 1014.7 |
| 20260503185819 | 63 | 178 | 0.0 | 1.0 | 0.00 | 0.00 | 0.00 | 34 | 1014.5 |
| 20260503184918 | 63 | 135 | 0.0 | 1.0 | 0.00 | 0.00 | 0.00 | 32 | 1014.7 |
| 20260503184837 | 63 | 135 | 0.0 | 0.0 | 0.00 | 0.00 | 0.00 | 31 | 1014.7 |
| 20260503183918 | 63 | 56 | 4.0 | 7.0 | 0.00 | 0.00 | 0.00 | 31 | 1014.7 |
| 20260503182918 | 63 | 85 | 0.0 | 3.0 | 0.00 | 0.00 | 0.00 | 34 | 1014.5 |
| 20260503181920 | 63 | 213 | 3.0 | 7.0 | 0.00 | 0.00 | 0.00 | 30 | 1014.6 |
| 20260503181019 | 64 | 255 | 4.0 | 7.0 | 0.00 | 0.00 | 0.00 | 30 | 1014.6 |
| 20260503180920 | 64 | 347 | 1.0 | 4.0 | 0.00 | 0.00 | 0.00 | 31 | 1014.5 |
| 20260503175920 | 64 | 180 | 0.0 | 1.0 | 0.00 | 0.00 | 0.00 | 30 | 1014.4 |
| 20260503175836 | 64 | 154 | 2.0 | 5.0 | 0.00 | 0.00 | 0.00 | 29 | 1014.4 |
| 20260503174920 | 64 | 292 | 1.0 | 3.0 | 0.00 | 0.00 | 0.00 | 31 | 1014.4 |
| 20260503174017 | 63 | 113 | 2.0 | 3.0 | 0.00 | 0.00 | 0.00 | 30 | 1014.4 |
| 20260503172117 | 63 | 273 | 4.0 | 8.0 | 0.00 | 0.00 | 0.00 | 29 | 1014.2 |
| 20260503171119 | 63 | 231 | 2.0 | 4.0 | 0.00 | 0.00 | 0.00 | 29 | 1014.3 |
| 20260503171019 | 63 | 243 | 1.0 | 4.0 | 0.00 | 0.00 | 0.00 | 30 | 1014.3 |
| 20260503170934 | 63 | 112 | 1.0 | 1.0 | 0.00 | 0.00 | 0.00 | 30 | 1014.3 |
| 20260503150239 | 49 | 360 | 0.0 | 0.0 | 0.00 | 0.00 | 0.00 | 79 | 1014.1 |
| 20260503140240 | 40 | 360 | 0.0 | 0.0 | 0.00 | 0.00 | 0.00 | 91 | 1013.8 |
| 20260503131139 | 38 | 360 | 0.0 | 0.0 | 0.00 | 0.00 | 0.00 | 92 | 1013.7 |
| 20260503130237 | 39 | 360 | 0.0 | 0.0 | 0.00 | 0.00 | 0.00 | 91 | 1013.7 |
| 20260503110436 | 38 | 270 | 0.0 | 0.0 | 0.00 | 0.00 | 0.00 | 93 | 1014.0 |
| 20260503100240 | 37 | 270 | 0.0 | 0.0 | 0.00 | 0.00 | 0.00 | 94 | 1014.4 |
| 20260503100138 | 37 | 270 | 0.0 | 0.0 | 0.00 | 0.00 | 0.00 | 94 | 1014.5 |
| 20260503072837 | 41 | 270 | 0.0 | 0.0 | 0.00 | 0.00 | 0.00 | 89 | 1015.7 |
| 20260503071841 | 41 | 270 | 0.0 | 0.0 | 0.00 | 0.00 | 0.00 | 88 | 1016.0 |
| 20260503070838 | 41 | 270 | 0.0 | 0.0 | 0.00 | 0.00 | 0.00 | 88 | 1015.9 |
| 20260503054925 | 44 | 270 | 0.0 | 0.0 | 0.00 | 0.00 | 0.00 | 82 | 1016.6 |
| 20260503054023 | 45 | 270 | 0.0 | 0.0 | 0.00 | 0.00 | 0.00 | 80 | 1016.6 |
| 20260503052942 | 46 | 270 | 0.0 | 0.0 | 0.00 | 0.00 | 0.00 | 79 | 1016.8 |
| 20260503052025 | 46 | 270 | 0.0 | 0.0 | 0.00 | 0.00 | 0.00 | 78 | 1016.8 |
| 20260503051923 | 46 | 270 | 0.0 | 0.0 | 0.00 | 0.00 | 0.00 | 78 | 1016.9 |
| 20260503050925 | 46 | 270 | 0.0 | 0.0 | 0.00 | 0.00 | 0.00 | 76 | 1016.9 |
| 20260503045927 | 47 | 270 | 0.0 | 0.0 | 0.00 | 0.00 | 0.00 | 76 | 1016.9 |
| 20260503045023 | 47 | 270 | 0.0 | 0.0 | 0.00 | 0.00 | 0.00 | 75 | 1016.7 |
| 20260503044925 | 47 | 270 | 0.0 | 0.0 | 0.00 | 0.00 | 0.00 | 75 | 1016.7 |
| 20260503043024 | 48 | 270 | 0.0 | 0.0 | 0.00 | 0.00 | 0.00 | 73 | 1016.6 |
| 20260503042923 | 48 | 270 | 0.0 | 0.0 | 0.00 | 0.00 | 0.00 | 72 | 1016.5 |
| 20260503041925 | 49 | 270 | 0.0 | 0.0 | 0.00 | 0.00 | 0.00 | 70 | 1016.5 |
| 20260503040031 | 51 | 270 | 0.0 | 0.0 | 0.00 | 0.00 | 0.00 | 67 | 1016.4 |
| 20260503034124 | 52 | 270 | 0.0 | 0.0 | 0.00 | 0.00 | 0.00 | 66 | 1016.2 |
| 20260503034027 | 52 | 270 | 0.0 | 0.0 | 0.00 | 0.00 | 0.00 | 66 | 1016.2 |
| 20260503033124 | 53 | 270 | 0.0 | 0.0 | 0.00 | 0.00 | 0.00 | 65 | 1016.3 |
| 20260503032127 | 54 | 270 | 0.0 | 1.0 | 0.00 | 0.00 | 0.00 | 62 | 1016.0 |
| 20260503031224 | 55 | 270 | 0.0 | 0.0 | 0.00 | 0.00 | 0.00 | 62 | 1016.0 |
| 20260503030226 | 55 | 270 | 0.0 | 0.0 | 0.00 | 0.00 | 0.00 | 60 | 1016.1 |
| 20260503024225 | 58 | 270 | 0.0 | 0.0 | 0.00 | 0.00 | 0.00 | 56 | 1015.9 |
| 20260503023227 | 59 | 270 | 0.0 | 0.0 | 0.00 | 0.00 | 0.00 | 52 | 1015.8 |
| 20260503022323 | 60 | 270 | 0.0 | 0.0 | 0.00 | 0.00 | 0.00 | 49 | 1015.9 |
| 20260503021325 | 62 | 270 | 0.0 | 0.0 | 0.00 | 0.00 | 0.00 | 47 | 1016.0 |
| 20260503015424 | 63 | 270 | 0.0 | 0.0 | 0.00 | 0.00 | 0.00 | 41 | 1016.0 |
| 20260503012424 | 65 | 310 | 0.0 | 1.0 | 0.00 | 0.00 | 0.00 | 34 | 1016.0 |
| 20260503012326 | 66 | 308 | 2.0 | 3.0 | 0.00 | 0.00 | 0.00 | 33 | 1015.9 |
| 20260503011323 | 67 | 247 | 3.0 | 6.0 | 0.00 | 0.00 | 0.00 | 32 | 1015.9 |
| 20260503010324 | 68 | 180 | 0.0 | 2.0 | 0.00 | 0.00 | 0.00 | 31 | 1015.9 |
| 20260503005328 | 68 | 180 | 2.0 | 7.0 | 0.00 | 0.00 | 0.00 | 32 | 1015.9 |